STARLINK-2145, 48555

Orbit data source: Space-Track

STARLINK-2145, 48555 is a payload satellite owned by SpaceX/Seattle (US) in LEO that was launched on Sat, 15 May 2021 UTC via an FALCON 9 launch vehicle from the Air Force Eastern Test Range (AFETR). Payload-class satellites include a variety of spacecraft equipped with specific instruments for various scientific and technological missions. These include communications satellites like Starlink; space stations such as the ISS; scientific satellites like the Hubble; Earth observation satellites from companies like Planet Labs, Umbra, and HawkEye 360; GPS; miniature CubeSats for education and research; and military/defense satellites.

Loading next visibility...
Identifier
48555, 2021-041C
Orbit
LEO
Country
Flag of USUS
Related business
Manufacturer
SpaceX/Seattle
Mission
Operational Commercial Communications
Bus & Motor
STARLINK, Unknown motor
Mass
260 kg wet, ~248 kg dry
Launch date (UTC)
2021-05-15 (5 years ago)
Launch vehicle
FALCON 9
Launch site
Air Force Eastern Test Range (AFETR)
Object type
Payload
Rocket body
Debris
Shape & HBR
Box + 1 Pan, 10.1 m
Radar Cross Section
13.562 m², Large (>1 m²)

Expand to show TLE details & history
Last TLE update: 20 hours ago

TLE from 20 hours ago
0 STARLINK-2145
1 48555U 21041C   25348.79059010  .00001936  00000-0  14887-3 0  9998
2 48555  53.0544 162.7444 0001322  92.5877 267.5264 15.06389652252268
Epoch: 2025-12-14T18:58Z
TLE epoch observation values (Epoch: 2025-12-14T18:58:26.984Z)
Latitude
0.00002°
Longitude
154.43354°
Altitude
548.162 km
Speed
7.589 km/s
True Right ascension
10h 50m 58s
True Declination
0° 00' 00"
Sunlit
Object was in daylight at epoch
Visualization orbit readout
Latitude
Unknown
Longitude
Unknown
Altitude
Unknown
Speed
Unknown
Apparent Right ascension
Unknown
Apparent Declination
Unknown
Sunlit
N/A
Visualization observer readout
Local Sidereal Time
13:19:55
Azimuth
Unknown
Elevation
Unknown
Doppler factor
Unknown
Orbital elements
Apogee altitude
548.43 km
Perigee altitude
546.598 km
Semi-major axis
6,925.651 km
Eccentricity
0.00013
Inclination
53.0544°
RAAN
162.7444°
Arg. of periapsis
92.5877°
True anomaly
267.51127°
Mean anomaly
267.5264°
Eccentric anomaly
267.51883°
Mean motion
3.76576 °/min
Orbital period
95.6 mins
BSTAR
0.00014887
Loading maneuver chart data...
Computing Atmospheric mass density...
Loading historical data...
Loading historical data...
Loading historical data...
Loading historical data...
Loading historical data...
Loading historical data...
Loading historical data...

Documentation

Showing up to 5 results
|